KE6LRO Weather Reports


Display with metric or nautical units.
time (UTC)temp
F
wind
direction
speed
MPH
gust
MPH
rain 1hr
in
rain 24hr
in
rain mn
in
humidity
%
barometer
mb
20260905114720 46 41 0.0 0.0 0.00 0.00 0.00 99 1022.9
20260905114219 46 41 0.0 0.0 0.00 0.00 0.00 99 1023.1
20260905113718 46 41 0.0 0.0 0.00 0.00 0.00 99 1023.1
20260905113214 46 41 0.0 0.0 0.00 0.00 0.00 99 1023.1
20260905112714 46 40 0.0 0.0 0.00 0.00 0.00 99 1023.2
20260905112209 46 41 0.0 0.0 0.00 0.00 0.00 99 1023.1
20260905111709 46 40 0.0 0.0 0.00 0.00 0.00 99 1023.2
20260905111209 46 40 0.0 0.0 0.00 0.00 0.00 99 1023.0
20260905110708 46 40 0.0 0.0 0.00 0.00 0.00 99 1022.9
20260905110203 46 63 0.0 0.0 0.00 0.00 0.00 99 1023.0
20260905105658 46 251 0.0 0.0 0.00 0.00 0.00 99 1023.2
20260905105152 46 254 0.0 0.0 0.00 0.00 0.00 99 1022.8
20260905104647 46 254 0.0 0.0 0.00 0.00 0.00 99 1022.8
20260905104143 46 299 0.0 0.0 0.00 0.00 0.00 99 1023.0
20260905103638 46 314 0.0 0.0 0.00 0.00 0.00 99 1022.9
20260905103133 46 314 0.0 1.0 0.00 0.00 0.00 99 1022.9
20260905102629 46 340 1.0 1.0 0.00 0.00 0.00 99 1022.7
20260905102126 46 332 1.0 1.0 0.00 0.00 0.00 99 1022.9
20260905101624 46 7 1.0 2.0 0.00 0.00 0.00 99 1022.8
20260905101122 46 105 0.0 0.0 0.00 0.00 0.00 99 1022.8
20260905100619 46 272 0.0 0.0 0.00 0.00 0.00 99 1023.0
20260905100114 46 281 0.0 0.0 0.00 0.00 0.00 99 1023.2
20260905095612 46 297 0.0 0.0 0.00 0.00 0.00 99 1023.0
20260905095108 46 310 0.0 0.0 0.00 0.00 0.00 99 1023.0
20260905094603 46 310 0.0 0.0 0.00 0.00 0.00 99 1022.8
20260905094103 45 297 1.0 2.0 0.00 0.00 0.00 99 1022.8
20260905093602 45 89 0.0 1.0 0.00 0.00 0.00 99 1022.7
20260905093059 45 221 0.0 0.0 0.00 0.00 0.00 99 1022.8
20260905092559 45 222 0.0 0.0 0.00 0.00 0.00 99 1022.8
20260905092055 45 222 1.0 1.0 0.00 0.00 0.00 99 1023.0
20260905091554 45 86 0.0 0.0 0.00 0.00 0.00 99 1022.9
20260905091048 45 52 0.0 0.0 0.00 0.00 0.00 99 1022.9
20260905090542 45 317 0.0 1.0 0.00 0.00 0.00 99 1022.6
20260905090038 45 315 1.0 2.0 0.00 0.00 0.00 99 1022.4
20260905085536 45 57 0.0 0.0 0.00 0.00 0.00 99 1022.4
20260905085033 45 58 0.0 0.0 0.00 0.00 0.00 99 1022.7
20260905084531 45 269 0.0 1.0 0.00 0.00 0.00 99 1022.6
20260905084027 45 111 0.0 0.0 0.00 0.00 0.00 99 1022.6
20260905083516 45 108 0.0 0.0 0.00 0.00 0.00 99 1023.1
20260905083013 45 107 0.0 0.0 0.00 0.00 0.00 99 1022.9
20260905082508 45 107 0.0 0.0 0.00 0.00 0.00 99 1023.2
20260905082003 45 108 0.0 0.0 0.00 0.00 0.00 99 1023.2
20260905081457 45 231 0.0 0.0 0.00 0.00 0.00 99 1023.0
20260905080956 44 251 0.0 0.0 0.00 0.00 0.00 99 1023.1
20260905080452 44 107 0.0 0.0 0.00 0.00 0.00 99 1023.1
20260905075950 44 248 0.0 0.0 0.00 0.00 0.00 99 1023.0
20260905075445 44 168 0.0 0.0 0.00 0.00 0.00 99 1022.8
20260905074943 44 71 0.0 0.0 0.00 0.00 0.00 99 1022.9
20260905074439 44 24 0.0 0.0 0.00 0.00 0.00 99 1022.8
20260905073935 44 282 0.0 0.0 0.00 0.00 0.00 99 1022.9
20260905073430 44 285 0.0 0.0 0.00 0.00 0.00 99 1023.4
20260905072925 44 40 0.0 0.0 0.00 0.00 0.00 99 1023.2
20260905072420 44 40 0.0 0.0 0.00 0.00 0.00 99 1023.1
20260905071916 44 40 0.0 0.0 0.00 0.00 0.00 99 1023.0
20260905071413 44 358 0.0 0.0 0.00 0.00 0.00 99 1023.1
20260905070912 44 356 0.0 0.0 0.00 0.00 0.00 99 1023.2
20260905070409 44 27 0.0 0.0 0.00 0.00 0.00 99 1023.4
20260905065903 44 348 0.0 0.0 0.00 0.00 0.00 99 1023.1
20260905065401 44 84 0.0 0.0 0.00 0.00 0.00 99 1022.9
20260905064856 44 85 0.0 0.0 0.00 0.00 0.00 99 1023.2
20260905064352 44 84 0.0 0.0 0.00 0.00 0.00 99 1023.2
20260905063851 44 84 0.0 0.0 0.00 0.00 0.00 99 1023.2
20260905063347 44 84 0.0 0.0 0.00 0.00 0.00 99 1023.4
20260905062843 44 84 0.0 0.0 0.00 0.00 0.00 99 1023.5
20260905062342 44 84 0.0 0.0 0.00 0.00 0.00 99 1023.5
20260905061838 44 84 0.0 0.0 0.00 0.00 0.00 99 1023.2
20260905061337 44 85 0.0 0.0 0.00 0.00 0.00 99 1023.0
20260905060832 44 85 0.0 0.0 0.00 0.00 0.00 99 1023.1
20260905060328 44 84 0.0 0.0 0.00 0.00 0.00 99 1023.0
20260905055827 44 84 0.0 0.0 0.00 0.25 0.25 99 1023.0
20260905055322 45 85 0.0 0.0 0.00 0.25 0.25 99 1022.9
20260905054822 45 85 0.0 0.0 0.00 0.25 0.25 99 1022.8
20260905054319 45 85 0.0 0.0 0.00 0.25 0.25 99 1022.7
20260905053818 45 85 0.0 0.0 0.00 0.25 0.25 99 1022.9
20260905053314 45 85 0.0 1.0 0.00 0.25 0.25 99 1022.8
20260905052814 45 84 0.0 0.0 0.00 0.25 0.25 99 1022.6
20260905052314 45 84 0.0 0.0 0.00 0.25 0.25 99 1022.8
20260905051813 45 84 0.0 0.0 0.00 0.25 0.25 99 1022.9
20260905051309 45 84 0.0 1.0 0.00 0.25 0.25 99 1022.8
20260905050806 46 83 0.0 0.0 0.00 0.25 0.25 99 1022.8
20260905050302 46 83 0.0 0.0 0.00 0.25 0.25 99 1022.8
20260905045757 46 84 0.0 0.0 0.00 0.25 0.25 99 1022.8
20260905045253 46 84 0.0 0.0 0.00 0.25 0.25 99 1023.1
20260905044748 46 84 0.0 0.0 0.00 0.25 0.25 99 1023.4
20260905044248 47 84 0.0 0.0 0.00 0.25 0.25 99 1023.0
20260905043746 47 84 0.0 0.0 0.00 0.25 0.25 99 1023.0
20260905043241 47 85 0.0 0.0 0.00 0.25 0.25 99 1023.2
20260905042737 47 85 0.0 0.0 0.00 0.25 0.25 99 1023.2
20260905042236 47 84 0.0 0.0 0.00 0.25 0.25 99 1023.2
20260905041732 47 84 0.0 0.0 0.00 0.25 0.25 98 1023.4
20260905041227 48 84 0.0 0.0 0.00 0.25 0.25 98 1023.2
20260905040722 48 82 0.0 0.0 0.00 0.25 0.25 98 1022.9
20260905040221 48 83 0.0 0.0 0.00 0.25 0.25 98 1022.9
20260905035721 49 146 0.0 0.0 0.00 0.25 0.25 98 1023.2
20260905035217 49 147 0.0 0.0 0.00 0.25 0.25 98 1023.1
20260905034713 50 110 0.0 0.0 0.00 0.25 0.25 97 1023.0
20260905034212 50 298 0.0 0.0 0.00 0.25 0.25 97 1022.8
20260905033711 50 314 0.0 1.0 0.00 0.25 0.25 97 1022.6
20260905033207 50 313 0.0 0.0 0.00 0.25 0.25 97 1022.8
20260905032706 50 311 1.0 1.0 0.00 0.25 0.25 97 1023.1
20260905032201 50 63 0.0 0.0 0.00 0.25 0.25 97 1023.1
20260905031657 50 159 0.0 0.0 0.00 0.25 0.25 97 1023.0
20260905031152 50 144 1.0 2.0 0.00 0.25 0.25 97 1022.9
20260905030647 50 137 0.0 0.0 0.00 0.25 0.25 97 1022.8
20260905030142 51 137 0.0 0.0 0.00 0.25 0.25 97 1022.8
20260905025637 51 139 0.0 1.0 0.00 0.25 0.25 97 1022.9
20260905025133 51 138 0.0 0.0 0.00 0.25 0.25 97 1022.9
20260905024629 51 139 0.0 0.0 0.00 0.25 0.25 97 1022.9
20260905024124 51 138 1.0 1.0 0.00 0.25 0.25 96 1023.2
20260905023620 51 15 0.0 0.0 0.00 0.25 0.25 96 1022.9
20260905023113 51 28 1.0 1.0 0.00 0.25 0.25 96 1022.9
20260905022613 51 66 0.0 0.0 0.00 0.25 0.25 95 1022.8
20260905022108 51 59 1.0 2.0 0.00 0.25 0.25 96 1022.6
20260905021608 51 54 0.0 2.0 0.00 0.25 0.25 96 1022.5
20260905021103 51 93 0.0 1.0 0.00 0.25 0.25 96 1022.5
20260905020602 51 133 1.0 2.0 0.00 0.25 0.25 96 1022.5
20260905020058 52 228 0.0 1.0 0.00 0.25 0.25 96 1022.5
20260905015556 52 219 1.0 1.0 0.00 0.25 0.25 96 1022.2
20260905015051 52 110 0.0 0.0 0.00 0.25 0.25 96 1022.6
20260905014545 52 28 0.0 0.0 0.00 0.25 0.25 95 1022.8
20260905014041 52 250 0.0 0.0 0.00 0.25 0.25 95 1022.9
20260905013537 52 187 0.0 1.0 0.00 0.25 0.25 95 1023.0
20260905013033 52 129 1.0 2.0 0.00 0.25 0.25 95 1022.8
20260905012527 52 359 0.0 0.0 0.07 0.25 0.25 94 1022.7
20260905012024 53 45 0.0 1.0 0.07 0.25 0.25 93 1022.4
20260905011520 53 65 0.0 0.0 0.00 0.24 0.24 92 1022.4
20260905011015 53 62 0.0 0.0 0.00 0.24 0.24 91 1022.6
20260905010515 54 132 0.0 0.0 0.05 0.24 0.24 92 1022.4
20260905010012 54 253 0.0 1.0 0.00 0.23 0.23 89 1022.2
20260905005507 54 79 0.0 0.0 0.00 0.23 0.23 88 1022.0
20260905005001 55 81 0.0 0.0 0.00 0.23 0.23 85 1021.9
20260905004457 56 81 0.0 1.0 0.00 0.23 0.23 82 1022.1
20260905003952 57 278 0.0 2.0 0.00 0.23 0.23 78 1021.6
20260905003448 58 118 0.0 0.0 0.00 0.23 0.23 71 1021.2
20260905002943 59 120 0.0 2.0 0.00 0.23 0.23 68 1021.2
20260905002444 61 65 0.0 1.0 0.00 0.23 0.23 56 1020.9
20260905001943 61 33 3.0 3.0 0.00 0.23 0.23 49 1021.0
20260905001438 61 3 1.0 3.0 0.00 0.23 0.23 49 1020.8
20260905000932 61 45 1.0 2.0 0.00 0.23 0.23 49 1020.6
20260905000429 62 24 3.0 6.0 0.00 0.23 0.23 49 1020.6
20260904235924 62 29 4.0 5.0 0.00 0.23 0.23 49 1020.5
20260904235420 62 39 0.0 2.0 0.00 0.23 0.23 49 1020.6
20260904234920 62 45 5.0 8.0 0.00 0.23 0.23 48 1020.6
20260904234419 62 359 2.0 5.0 0.00 0.23 0.23 48 1020.5
20260904233915 62 42 2.0 5.0 0.00 0.23 0.23 48 1020.5
20260904233411 62 26 2.0 5.0 0.00 0.23 0.23 47 1020.3
20260904232907 63 17 1.0 2.0 0.00 0.23 0.23 48 1020.5
20260904232404 63 326 3.0 5.0 0.00 0.23 0.23 47 1020.5
20260904231859 63 4 2.0 7.0 0.00 0.23 0.23 47 1020.2
20260904231354 63 28 1.0 6.0 0.00 0.23 0.23 48 1020.5
20260904230849 63 53 1.0 2.0 0.00 0.23 0.23 49 1020.2
20260904230348 63 11 4.0 5.0 0.00 0.23 0.23 47 1020.1
20260904225843 63 47 1.0 6.0 0.00 0.23 0.23 47 1020.1
20260904225341 63 35 3.0 6.0 0.00 0.23 0.23 47 1020.0
20260904224841 63 337 7.0 7.0 0.00 0.23 0.23 46 1020.1
20260904224337 63 19 2.0 6.0 0.00 0.23 0.23 48 1020.0
20260904223836 63 315 5.0 6.0 0.00 0.23 0.23 47 1020.1
20260904223331 63 37 6.0 7.0 0.00 0.23 0.23 47 1019.9
20260904222827 63 335 4.0 6.0 0.00 0.23 0.23 49 1020.0
20260904222321 64 322 3.0 8.0 0.00 0.23 0.23 48 1019.9
20260904221816 63 31 4.0 9.0 0.00 0.23 0.23 47 1019.8
20260904221316 63 59 1.0 10.0 0.00 0.23 0.23 48 1019.9
20260904220811 63 45 6.0 8.0 0.00 0.23 0.23 48 1019.9
20260904220310 63 76 3.0 8.0 0.00 0.23 0.23 48 1020.1
20260904215806 63 24 5.0 7.0 0.00 0.23 0.23 49 1019.9
20260904215301 63 317 2.0 5.0 0.00 0.23 0.23 49 1019.9
20260904214756 64 23 3.0 6.0 0.00 0.23 0.23 50 1019.9
20260904214252 64 358 6.0 8.0 0.00 0.23 0.23 49 1020.1
20260904213750 64 317 3.0 5.0 0.00 0.23 0.23 49 1020.0
20260904213246 65 70 4.0 7.0 0.00 0.23 0.23 49 1020.2
20260904212742 64 326 2.0 3.0 0.00 0.23 0.23 50 1019.9
20260904212241 64 319 2.0 7.0 0.00 0.23 0.23 51 1019.8
20260904211736 63 359 5.0 7.0 0.00 0.23 0.23 51 1019.8
20260904211231 63 7 4.0 5.0 0.00 0.23 0.23 51 1019.6
20260904210726 65 351 4.0 7.0 0.00 0.23 0.23 49 1019.9
20260904210221 63 305 5.0 7.0 0.00 0.23 0.23 52 1019.8
20260904205717 64 267 1.0 3.0 0.00 0.23 0.23 52 1019.7
20260904205208 63 6 1.0 3.0 0.00 0.23 0.23 51 1019.7
20260904204704 64 334 3.0 3.0 0.00 0.23 0.23 53 1019.8
20260904204200 64 308 2.0 2.0 0.00 0.23 0.23 52 1019.9
20260904203656 64 311 0.0 1.0 0.00 0.23 0.23 53 1020.2
20260904203152 64 290 0.0 1.0 0.00 0.23 0.23 52 1020.1
20260904202647 62 323 2.0 2.0 0.00 0.23 0.23 54 1020.1
20260904202144 62 326 4.0 5.0 0.00 0.23 0.23 54 1020.0
20260904201644 62 337 3.0 3.0 0.00 0.23 0.23 55 1019.8
20260904201139 62 89 0.0 2.0 0.00 0.23 0.23 53 1019.8
20260904200638 63 67 3.0 5.0 0.00 0.23 0.23 51 1019.9
20260904200133 61 113 1.0 3.0 0.00 0.23 0.23 57 1019.9
20260904195632 61 187 3.0 5.0 0.00 0.23 0.23 56 1019.7
20260904195126 61 134 3.0 7.0 0.00 0.23 0.23 57 1020.1
20260904194625 61 117 1.0 3.0 0.00 0.23 0.23 59 1020.0
20260904194120 62 151 4.0 8.0 0.00 0.23 0.23 57 1020.0
20260904193615 62 179 2.0 6.0 0.00 0.23 0.23 57 1020.0
20260904193111 62 328 0.0 2.0 0.00 0.23 0.23 57 1020.0
20260904192611 62 85 2.0 6.0 0.00 0.23 0.23 59 1020.1
20260904192107 62 218 1.0 3.0 0.00 0.23 0.23 61 1019.8
20260904191603 62 220 1.0 5.0 0.00 0.23 0.23 60 1020.2
20260904191059 63 202 1.0 5.0 0.00 0.23 0.23 58 1020.1
20260904190555 62 64 0.0 1.0 0.00 0.23 0.23 63 1020.0
20260904190051 60 22 3.0 3.0 0.00 0.23 0.23 62 1020.3
20260904185547 60 270 0.0 3.0 0.00 0.23 0.23 63 1020.2
20260904185042 60 182 0.0 3.0 0.00 0.23 0.23 64 1020.3
20260904184536 62 104 1.0 5.0 0.00 0.23 0.23 63 1020.0
20260904184032 60 341 0.0 1.0 0.00 0.23 0.23 64 1020.3
20260904183527 59 359 2.0 3.0 0.00 0.23 0.23 66 1020.5
20260904183022 59 214 1.0 3.0 0.00 0.23 0.23 63 1020.5
20260904182518 59 324 0.0 3.0 0.00 0.23 0.23 68 1020.5
20260904182018 58 265 1.0 2.0 0.00 0.23 0.23 70 1020.5
20260904181513 58 15 0.0 2.0 0.00 0.23 0.23 68 1020.6
20260904181007 58 119 0.0 3.0 0.00 0.23 0.23 74 1020.2
20260904180507 56 230 0.0 5.0 0.00 0.23 0.23 71 1020.5
20260904180003 56 137 3.0 5.0 0.00 0.23 0.23 73 1020.7
20260904175502 55 67 0.0 1.0 0.00 0.23 0.23 80 1020.5
20260904174956 55 81 0.0 2.0 0.00 0.23 0.23 83 1020.7
20260904174451 54 232 0.0 0.0 0.00 0.23 0.23 84 1020.6
20260904173948 54 197 0.0 0.0 0.00 0.23 0.23 83 1020.7
20260904173450 54 167 0.0 0.0 0.00 0.23 0.23 82 1020.6
20260904172943 54 178 0.0 0.0 0.00 0.23 0.23 83 1020.7
20260904172438 54 215 0.0 0.0 0.00 0.23 0.23 84 1020.5
20260904171938 54 236 0.0 1.0 0.00 0.23 0.23 81 1020.6
20260904171434 54 301 0.0 0.0 0.00 0.23 0.23 84 1020.5
20260904170929 54 212 0.0 2.0 0.00 0.23 0.23 82 1020.2
20260904170424 53 213 0.0 0.0 0.00 0.23 0.23 81 1020.6
20260904165920 53 230 1.0 5.0 0.00 0.23 0.23 82 1020.3
20260904165419 53 79 0.0 1.0 0.00 0.23 0.23 85 1020.5
20260904164918 53 180 0.0 1.0 0.00 0.23 0.23 85 1020.1
20260904164419 53 175 0.0 3.0 0.00 0.23 0.23 86 1020.1
20260904163915 53 195 1.0 2.0 0.00 0.23 0.23 86 1020.0
20260904163409 52 184 0.0 1.0 0.00 0.23 0.23 86 1020.0
20260904162908 52 228 1.0 3.0 0.00 0.23 0.23 86 1019.9
20260904162404 52 293 1.0 6.0 0.00 0.23 0.23 86 1020.0
20260904161859 53 185 3.0 8.0 0.00 0.23 0.23 90 1019.9
20260904161354 53 193 1.0 5.0 0.00 0.23 0.23 92 1019.9
20260904160849 53 163 3.0 5.0 0.00 0.23 0.23 90 1019.7
20260904160344 53 232 1.0 2.0 0.00 0.23 0.23 92 1019.6
20260904155839 51 196 0.0 3.0 0.00 0.23 0.23 96 1019.7
20260904155333 50 204 2.0 3.0 0.00 0.23 0.23 96 1019.6
20260904154832 50 110 0.0 1.0 0.00 0.23 0.23 97 1019.6
20260904154327 50 124 0.0 1.0 0.00 0.23 0.23 97 1019.7
20260904153823 49 191 0.0 2.0 0.00 0.23 0.23 97 1019.5
20260904153318 49 121 0.0 3.0 0.00 0.23 0.23 98 1019.5
20260904152814 49 125 2.0 2.0 0.00 0.23 0.23 98 1019.2
20260904152309 49 114 0.0 0.0 0.00 0.23 0.23 99 1019.2
20260904151804 48 206 1.0 2.0 0.00 0.23 0.23 99 1019.5
20260904151303 48 172 1.0 1.0 0.00 0.23 0.23 99 1019.1
20260904150759 48 181 2.0 2.0 0.00 0.23 0.23 99 1019.1
20260904150254 48 79 0.0 0.0 0.00 0.23 0.23 99 1019.1
20260904145752 48 142 1.0 1.0 0.00 0.23 0.23 99 1019.2
20260904145248 48 127 0.0 3.0 0.00 0.23 0.23 99 1019.2
20260904144743 48 167 0.0 1.0 0.00 0.23 0.23 99 1019.3
20260904144239 48 187 0.0 1.0 0.00 0.23 0.23 99 1019.2
20260904143734 48 231 0.0 0.0 0.00 0.23 0.23 99 1019.5
20260904143231 47 231 0.0 0.0 0.00 0.23 0.23 99 1019.1
20260904142727 47 110 0.0 0.0 0.00 0.23 0.23 99 1019.2
20260904142223 47 84 0.0 0.0 0.00 0.23 0.23 99 1019.0
20260904141722 47 84 0.0 0.0 0.00 0.23 0.23 99 1018.7
20260904141218 47 1 0.0 0.0 0.00 0.23 0.23 99 1018.5
20260904140714 47 2 0.0 0.0 0.00 0.23 0.23 99 1018.8
20260904140209 47 35 0.0 0.0 0.00 0.23 0.23 99 1018.6
20260904135707 47 35 0.0 0.0 0.00 0.23 0.23 99 1018.6
20260904135203 47 35 0.0 0.0 0.00 0.23 0.23 99 1018.3
20260904134659 47 33 1.0 1.0 0.00 0.23 0.23 99 1018.1
20260904134158 47 43 0.0 0.0 0.00 0.23 0.23 99 1018.3
20260904133653 47 92 0.0 0.0 0.00 0.23 0.23 99 1018.1
20260904133149 47 93 0.0 0.0 0.00 0.23 0.23 99 1018.2
20260904132648 47 150 0.0 0.0 0.00 0.23 0.23 99 1018.0
20260904132143 47 120 0.0 1.0 0.00 0.23 0.23 99 1018.2
20260904131642 47 159 0.0 0.0 0.00 0.23 0.23 99 1017.9
20260904131139 47 288 0.0 0.0 0.00 0.23 0.23 99 1018.1
20260904130633 47 287 0.0 1.0 0.00 0.23 0.23 99 1017.9
20260904130132 47 125 2.0 2.0 0.00 0.23 0.23 99 1018.0
20260904125629 47 118 0.0 0.0 0.00 0.23 0.23 99 1018.0
20260904125124 47 105 0.0 0.0 0.00 0.23 0.23 99 1017.8
20260904124619 47 137 2.0 2.0 0.07 0.23 0.23 99 1017.3
20260904124115 47 203 0.0 1.0 0.07 0.23 0.23 99 1017.2
20260904123615 47 267 1.0 3.0 0.00 0.22 0.22 99 1017.3
20260904123110 47 186 2.0 3.0 0.05 0.22 0.22 99 1017.2
20260904122605 47 181 1.0 3.0 0.05 0.22 0.22 99 1017.6
20260904122100 47 171 1.0 3.0 0.00 0.21 0.21 99 1017.3
20260904121555 47 149 1.0 2.0 0.00 0.21 0.21 99 1017.3
20260904121051 47 222 0.0 1.0 0.07 0.21 0.21 99 1017.3
20260904120548 47 156 0.0 1.0 0.12 0.21 0.21 99 1017.3
20260904120043 47 209 0.0 2.0 0.05 0.20 0.20 99 1017.1
20260904115538 47 181 3.0 5.0 0.07 0.19 0.19 99 1017.6
20260904115033 47 144 1.0 2.0 0.12 0.18 0.18 99 1017.6